Location: Six Mile Lake
(44.9000°N, 79.7170°W)
Time: 16:49:01
(UTC-04:00)

NOAA 18 - Pass Details

Date: 06 July 2022
Orbit: 839 x 860 km, 98.9° (Epoch: 11 August)

Event Time Altitude Azimuth Distance (km) Brightness Sun altitude
Exits shadow 22:43:42 18° 157° (SSE) 1,992 6.5 -13.3°
Maximum altitude 22:47:55 77° 73° (ENE) 883 5.2 -13.7°
Drops below altitude 10° 22:53:29 10° 348° (NNW) 2,506 8.8 -14.3°
Sets 22:55:53 0° 348° (NNW) 3,448 9.7 -14.6°
